Time,TemperatureF,DewpointF,PressureIn,WindDirection,WindDirectionDegrees,WindSpeedMPH,WindSpeedGustMPH,Humidity,HourlyPrecipIn,Conditions,Clouds,dailyrainin,SoftwareType,DateUTC
2013-05-02 00:04:00,51.4,42.8,30.20,NNW,348,0.0,13.0,72,0.00,,,0.00,meteohub,2013-05-02 05:04:00,
2013-05-02 00:09:00,51.4,42.4,30.20,NNE,28,0.0,13.0,71,0.00,,,0.00,meteohub,2013-05-02 05:09:00,
2013-05-02 00:15:00,51.4,42.8,30.20,NNE,27,6.0,10.0,72,0.00,,,0.00,meteohub,2013-05-02 05:15:00,
2013-05-02 00:20:00,51.4,42.4,30.20,NE,46,4.0,10.0,71,0.00,,,0.00,meteohub,2013-05-02 05:20:00,
2013-05-02 00:25:00,51.4,42.4,30.20,North,9,3.0,10.0,71,0.00,,,0.00,meteohub,2013-05-02 05:25:00,
2013-05-02 00:30:00,51.4,42.4,30.20,NE,37,0.0,12.0,71,0.00,,,0.00,meteohub,2013-05-02 05:30:00,
2013-05-02 00:35:00,51.4,42.4,30.20,North,0,1.0,12.0,71,0.00,,,0.00,meteohub,2013-05-02 05:35:00,
2013-05-02 00:40:00,51.3,42.3,30.20,North,0,1.0,13.0,71,0.00,,,0.00,meteohub,2013-05-02 05:40:00,
2013-05-02 00:45:00,51.3,42.3,30.20,NNE,13,0.0,13.0,71,0.00,,,0.00,meteohub,2013-05-02 05:45:00,
2013-05-02 00:50:00,51.3,42.6,30.20,NE,52,0.0,13.0,72,0.00,,,0.00,meteohub,2013-05-02 05:50:00,
2013-05-02 00:55:00,51.1,41.7,30.20,North,355,11.0,11.0,70,0.00,,,0.00,meteohub,2013-05-02 05:55:00,
2013-05-02 01:00:00,50.7,41.4,30.21,NNE,20,7.0,14.0,70,0.00,,,0.00,meteohub,2013-05-02 06:00:00,
2013-05-02 01:05:00,50.4,41.0,30.21,NNW,335,4.0,16.0,70,0.00,,,0.00,meteohub,2013-05-02 06:05:00,
2013-05-02 01:10:00,49.8,40.8,30.21,NE,55,2.0,16.0,71,0.00,,,0.00,meteohub,2013-05-02 06:10:00,
2013-05-02 01:15:00,49.5,40.8,30.21,North,9,12.0,16.0,72,0.00,,,0.00,meteohub,2013-05-02 06:15:00,
2013-05-02 01:20:00,49.3,40.3,30.21,North,0,7.0,14.0,71,0.00,,,0.00,meteohub,2013-05-02 06:20:00,
2013-05-02 01:25:00,48.9,40.3,30.21,North,0,2.0,13.0,72,0.00,,,0.00,meteohub,2013-05-02 06:25:00,
2013-05-02 01:30:00,48.7,40.1,30.22,NE,35,2.0,13.0,72,0.00,,,0.00,meteohub,2013-05-02 06:30:00,
2013-05-02 01:35:00,48.7,40.1,30.22,ENE,62,2.0,13.0,72,0.00,,,0.00,meteohub,2013-05-02 06:35:00,
2013-05-02 01:40:00,48.4,39.4,30.21,North,9,2.0,12.0,71,0.00,,,0.00,meteohub,2013-05-02 06:40:00,
2013-05-02 01:45:00,48.2,39.6,30.21,NNE,19,6.0,12.0,72,0.00,,,0.00,meteohub,2013-05-02 06:45:00,
2013-05-02 01:50:00,48.0,39.4,30.21,NNE,20,2.0,18.0,72,0.00,,,0.00,meteohub,2013-05-02 06:50:00,
2013-05-02 01:56:00,47.8,39.2,30.21,NNE,19,6.0,18.0,72,0.00,,,0.00,meteohub,2013-05-02 06:56:00,
2013-05-02 02:01:00,47.8,39.2,30.21,NNE,18,1.0,14.0,72,0.00,,,0.00,meteohub,2013-05-02 07:01:00,
2013-05-02 02:06:00,47.7,39.0,30.21,North,5,2.0,14.0,72,0.00,,,0.00,meteohub,2013-05-02 07:06:00,
2013-05-02 02:11:00,47.7,39.0,30.21,NE,47,7.0,13.0,72,0.00,,,0.00,meteohub,2013-05-02 07:11:00,
2013-05-02 02:16:00,47.5,38.8,30.22,ESE,111,1.0,13.0,72,0.00,,,0.00,meteohub,2013-05-02 07:16:00,
2013-05-02 02:21:00,47.5,38.8,30.21,NNE,22,7.0,14.0,72,0.00,,,0.00,meteohub,2013-05-02 07:21:00,
2013-05-02 02:26:00,47.3,38.7,30.21,WNW,299,6.0,14.0,72,0.00,,,0.00,meteohub,2013-05-02 07:26:00,
2013-05-02 02:31:00,47.1,38.5,30.22,NW,317,7.0,14.0,72,0.00,,,0.00,meteohub,2013-05-02 07:31:00,
2013-05-02 02:36:00,46.9,38.3,30.21,North,5,2.0,13.0,72,0.00,,,0.00,meteohub,2013-05-02 07:36:00,
2013-05-02 02:41:00,46.9,38.3,30.22,NE,55,10.0,15.0,72,0.00,,,0.00,meteohub,2013-05-02 07:41:00,
2013-05-02 02:46:00,46.9,38.3,30.21,NE,47,0.0,15.0,72,0.00,,,0.00,meteohub,2013-05-02 07:46:00,
2013-05-02 02:51:00,46.8,38.3,30.22,NE,49,7.0,15.0,72,0.00,,,0.00,meteohub,2013-05-02 07:51:00,
2013-05-02 02:56:00,46.8,38.3,30.22,ENE,62,5.0,10.0,72,0.00,,,0.00,meteohub,2013-05-02 07:56:00,
2013-05-02 03:01:00,46.6,38.5,30.22,NNE,23,5.0,12.0,73,0.00,,,0.00,meteohub,2013-05-02 08:01:00,
2013-05-02 03:06:00,46.6,38.5,30.22,NE,55,8.0,12.0,73,0.00,,,0.00,meteohub,2013-05-02 08:06:00,
2013-05-02 03:11:00,46.4,38.3,30.22,NE,34,0.0,10.0,73,0.00,,,0.00,meteohub,2013-05-02 08:11:00,
2013-05-02 03:16:00,46.2,38.1,30.22,SW,217,1.0,10.0,73,0.00,,,0.00,meteohub,2013-05-02 08:16:00,
2013-05-02 03:21:00,46.2,38.1,30.22,NNE,28,6.0,11.0,73,0.00,,,0.00,meteohub,2013-05-02 08:21:00,
2013-05-02 03:26:00,46.2,38.1,30.22,North,5,4.0,11.0,73,0.00,,,0.00,meteohub,2013-05-02 08:26:00,
2013-05-02 03:31:00,46.0,37.9,30.22,NNE,20,1.0,12.0,73,0.00,,,0.00,meteohub,2013-05-02 08:31:00,
2013-05-02 03:37:00,45.9,37.8,30.22,NNE,26,0.0,13.0,73,0.00,,,0.00,meteohub,2013-05-02 08:37:00,
2013-05-02 03:42:00,45.9,37.8,30.22,North,0,7.0,13.0,73,0.00,,,0.00,meteohub,2013-05-02 08:42:00,
2013-05-02 03:47:00,45.7,37.6,30.22,NNE,29,6.0,13.0,73,0.00,,,0.00,meteohub,2013-05-02 08:47:00,
2013-05-02 03:52:00,45.7,37.6,30.22,NW,321,1.0,16.0,73,0.00,,,0.00,meteohub,2013-05-02 08:52:00,
2013-05-02 03:57:00,45.3,37.2,30.21,NNE,32,0.0,16.0,73,0.00,,,0.00,meteohub,2013-05-02 08:57:00,
2013-05-02 04:02:00,45.3,37.6,30.21,North,0,0.0,16.0,74,0.00,,,0.00,meteohub,2013-05-02 09:02:00,
2013-05-02 04:07:00,45.1,37.0,30.22,NE,49,2.0,8.0,73,0.00,,,0.00,meteohub,2013-05-02 09:07:00,
2013-05-02 04:12:00,45.0,36.9,30.21,North,9,4.0,11.0,73,0.00,,,0.00,meteohub,2013-05-02 09:12:00,
2013-05-02 04:17:00,45.0,36.9,30.22,NNE,17,5.0,11.0,73,0.00,,,0.00,meteohub,2013-05-02 09:17:00,
2013-05-02 04:22:00,44.8,36.7,30.22,WNW,288,1.0,11.0,73,0.00,,,0.00,meteohub,2013-05-02 09:22:00,
2013-05-02 04:27:00,44.8,36.7,30.22,North,355,2.0,11.0,73,0.00,,,0.00,meteohub,2013-05-02 09:27:00,
2013-05-02 04:32:00,44.8,36.7,30.22,ENE,59,3.0,10.0,73,0.00,,,0.00,meteohub,2013-05-02 09:32:00,
2013-05-02 04:37:00,44.8,37.0,30.22,NNE,14,5.0,8.0,74,0.00,,,0.00,meteohub,2013-05-02 09:37:00,
2013-05-02 04:42:00,44.8,36.7,30.22,North,0,6.0,13.0,73,0.00,,,0.00,meteohub,2013-05-02 09:42:00,
2013-05-02 04:47:00,44.6,36.9,30.23,NNE,13,0.0,13.0,74,0.00,,,0.00,meteohub,2013-05-02 09:47:00,
2013-05-02 04:52:00,44.4,36.7,30.23,ENE,59,2.0,13.0,74,0.00,,,0.00,meteohub,2013-05-02 09:52:00,
2013-05-02 04:57:00,44.4,36.7,30.22,North,5,1.0,7.0,74,0.00,,,0.00,meteohub,2013-05-02 09:57:00,
2013-05-02 05:02:00,44.4,36.7,30.22,NE,41,1.0,10.0,74,0.00,,,0.00,meteohub,2013-05-02 10:02:00,
2013-05-02 05:07:00,44.4,36.7,30.22,North,5,7.0,12.0,74,0.00,,,0.00,meteohub,2013-05-02 10:07:00,
2013-05-02 05:12:00,44.4,37.0,30.23,North,9,4.0,12.0,75,0.00,,,0.00,meteohub,2013-05-02 10:12:00,
2013-05-02 05:17:00,44.4,36.7,30.22,NE,48,4.0,12.0,74,0.00,,,0.00,meteohub,2013-05-02 10:17:00,
2013-05-02 05:22:00,44.4,37.0,30.22,NE,52,0.0,10.0,75,0.00,,,0.00,meteohub,2013-05-02 10:22:00,
2013-05-02 05:27:00,44.4,37.0,30.22,NNW,333,0.0,10.0,75,0.00,,,0.00,meteohub,2013-05-02 10:27:00,
2013-05-02 05:32:00,44.4,37.0,30.22,NNE,15,8.0,13.0,75,0.00,,,0.00,meteohub,2013-05-02 10:32:00,
2013-05-02 05:37:00,44.4,37.4,30.22,NNW,344,4.0,18.0,76,0.00,,,0.00,meteohub,2013-05-02 10:37:00,
2013-05-02 05:42:00,44.4,37.0,30.23,NNE,12,4.0,18.0,75,0.00,,,0.00,meteohub,2013-05-02 10:42:00,
2013-05-02 05:47:00,44.4,37.0,30.24,NE,35,0.0,13.0,75,0.00,,,0.00,meteohub,2013-05-02 10:47:00,
2013-05-02 05:52:00,44.2,36.9,30.24,NNE,18,1.0,13.0,75,0.00,,,0.00,meteohub,2013-05-02 10:52:00,
2013-05-02 05:57:00,44.2,36.9,30.24,NNE,32,1.0,11.0,75,0.00,,,0.00,meteohub,2013-05-02 10:57:00,
2013-05-02 06:02:00,44.2,36.9,30.24,North,355,0.0,9.0,75,0.00,,,0.00,meteohub,2013-05-02 11:02:00,
2013-05-02 06:07:00,44.2,37.2,30.25,NNE,26,9.0,9.0,76,0.00,,,0.00,meteohub,2013-05-02 11:07:00,
2013-05-02 06:12:00,44.2,36.9,30.25,North,9,7.0,11.0,75,0.00,,,0.00,meteohub,2013-05-02 11:12:00,
2013-05-02 06:17:00,44.2,36.5,30.25,NW,319,8.0,14.0,74,0.00,,,0.00,meteohub,2013-05-02 11:17:00,
2013-05-02 06:22:00,44.2,36.9,30.25,NE,40,10.0,14.0,75,0.00,,,0.00,meteohub,2013-05-02 11:22:00,
2013-05-02 06:27:00,44.2,36.9,30.25,NNE,31,5.0,13.0,75,0.00,,,0.00,meteohub,2013-05-02 11:27:00,
2013-05-02 06:32:00,44.2,36.9,30.25,NE,37,8.0,13.0,75,0.00,,,0.00,meteohub,2013-05-02 11:32:00,
2013-05-02 06:37:00,44.2,36.5,30.25,NE,43,4.0,12.0,74,0.00,,,0.00,meteohub,2013-05-02 11:37:00,
2013-05-02 06:42:00,44.2,36.5,30.25,NE,36,7.0,13.0,74,0.00,,,0.00,meteohub,2013-05-02 11:42:00,
2013-05-02 06:47:00,44.2,36.5,30.25,NNE,13,5.0,13.0,74,0.00,,,0.00,meteohub,2013-05-02 11:47:00,
2013-05-02 06:52:00,44.1,36.3,30.26,NNE,15,9.0,14.0,74,0.00,,,0.00,meteohub,2013-05-02 11:52:00,
2013-05-02 06:57:00,44.2,36.9,30.26,NNW,346,0.0,14.0,75,0.00,,,0.00,meteohub,2013-05-02 11:57:00,
2013-05-02 07:02:00,44.4,37.0,30.26,North,350,0.0,14.0,75,0.00,,,0.00,meteohub,2013-05-02 12:02:00,
2013-05-02 07:07:00,44.6,37.2,30.26,North,349,0.0,13.0,75,0.00,,,0.00,meteohub,2013-05-02 12:07:00,
2013-05-02 07:12:00,44.8,37.4,30.26,NNW,348,3.0,11.0,75,0.00,,,0.00,meteohub,2013-05-02 12:12:00,
2013-05-02 07:17:00,45.0,37.6,30.26,NW,317,2.0,11.0,75,0.00,,,0.00,meteohub,2013-05-02 12:17:00,
2013-05-02 07:22:00,45.0,37.6,30.26,East,96,4.0,14.0,75,0.00,,,0.00,meteohub,2013-05-02 12:22:00,
2013-05-02 07:27:00,45.1,37.4,30.26,NNE,13,4.0,14.0,74,0.00,,,0.00,meteohub,2013-05-02 12:27:00,
2013-05-02 07:32:00,45.3,37.6,30.26,ENE,63,4.0,11.0,74,0.00,,,0.00,meteohub,2013-05-02 12:32:00,
2013-05-02 07:37:00,45.7,37.6,30.26,NNE,26,8.0,10.0,73,0.00,,,0.00,meteohub,2013-05-02 12:37:00,
2013-05-02 07:42:00,46.0,37.9,30.26,NNW,348,3.0,14.0,73,0.00,,,0.00,meteohub,2013-05-02 12:42:00,
2013-05-02 07:47:00,45.9,37.4,30.27,NNE,14,5.0,14.0,72,0.00,,,0.00,meteohub,2013-05-02 12:47:00,
2013-05-02 07:52:00,45.9,37.8,30.26,NE,49,0.0,14.0,73,0.00,,,0.00,meteohub,2013-05-02 12:52:00,
2013-05-02 07:57:00,46.2,37.8,30.26,NNE,19,5.0,14.0,72,0.00,,,0.00,meteohub,2013-05-02 12:57:00,
2013-05-02 08:02:00,46.2,38.1,30.26,NNW,338,6.0,13.0,73,0.00,,,0.00,meteohub,2013-05-02 13:02:00,
2013-05-02 08:07:00,46.6,38.1,30.27,ENE,74,7.0,12.0,72,0.00,,,0.00,meteohub,2013-05-02 13:07:00,
2013-05-02 08:12:00,46.8,37.9,30.26,NNE,13,5.0,12.0,71,0.00,,,0.00,meteohub,2013-05-02 13:12:00,
2013-05-02 08:17:00,47.1,38.1,30.26,NNE,14,0.0,14.0,71,0.00,,,0.00,meteohub,2013-05-02 13:17:00,
2013-05-02 08:22:00,47.8,38.5,30.26,NNW,348,0.0,14.0,70,0.00,,,0.00,meteohub,2013-05-02 13:22:00,
2013-05-02 08:27:00,47.8,38.5,30.27,WNW,301,4.0,14.0,70,0.00,,,0.00,meteohub,2013-05-02 13:27:00,
2013-05-02 08:32:00,47.5,38.5,30.27,North,355,7.0,11.0,71,0.00,,,0.00,meteohub,2013-05-02 13:32:00,
2013-05-02 08:37:00,47.3,38.7,30.27,North,355,0.0,12.0,72,0.00,,,0.00,meteohub,2013-05-02 13:37:00,
2013-05-02 08:42:00,47.8,39.2,30.27,NW,322,6.0,12.0,72,0.00,,,0.00,meteohub,2013-05-02 13:42:00,
2013-05-02 08:47:00,48.0,38.7,30.27,NE,34,1.0,12.0,70,0.00,,,0.00,meteohub,2013-05-02 13:47:00,
2013-05-02 08:52:00,48.2,38.5,30.27,North,0,5.0,11.0,69,0.00,,,0.00,meteohub,2013-05-02 13:52:00,
2013-05-02 08:57:00,48.7,39.0,30.27,NNE,19,3.0,11.0,69,0.00,,,0.00,meteohub,2013-05-02 13:57:00,
2013-05-02 09:02:00,49.3,39.6,30.27,NNW,341,0.0,10.0,69,0.00,,,0.00,meteohub,2013-05-02 14:02:00,
2013-05-02 09:07:00,49.5,39.7,30.27,NNW,346,2.0,10.0,69,0.00,,,0.00,meteohub,2013-05-02 14:07:00,
2013-05-02 09:12:00,49.5,39.4,30.27,North,5,3.0,10.0,68,0.00,,,0.00,meteohub,2013-05-02 14:12:00,
2013-05-02 09:17:00,49.6,39.9,30.27,NNW,340,6.0,10.0,69,0.00,,,0.00,meteohub,2013-05-02 14:17:00,
2013-05-02 09:22:00,49.6,39.6,30.27,NNW,345,5.0,12.0,68,0.00,,,0.00,meteohub,2013-05-02 14:22:00,
2013-05-02 09:27:00,50.2,39.6,30.27,North,0,2.0,12.0,67,0.00,,,0.00,meteohub,2013-05-02 14:27:00,
2013-05-02 09:32:00,50.7,39.7,30.27,NNE,15,0.0,10.0,66,0.00,,,0.00,meteohub,2013-05-02 14:32:00,
2013-05-02 09:37:00,50.7,39.7,30.26,NE,41,0.0,9.0,66,0.00,,,0.00,meteohub,2013-05-02 14:37:00,
2013-05-02 09:42:00,51.4,40.1,30.27,NNE,23,4.0,10.0,65,0.00,,,0.00,meteohub,2013-05-02 14:42:00,
2013-05-02 09:47:00,52.0,40.6,30.27,NNW,333,1.0,10.0,65,0.00,,,0.00,meteohub,2013-05-02 14:47:00,
2013-05-02 09:52:00,52.2,40.3,30.27,NE,44,5.0,10.0,64,0.00,,,0.00,meteohub,2013-05-02 14:52:00,
2013-05-02 09:57:00,53.1,40.8,30.27,ENE,64,0.0,10.0,63,0.00,,,0.00,meteohub,2013-05-02 14:57:00,
2013-05-02 10:02:00,53.2,40.1,30.27,NNE,30,3.0,10.0,61,0.00,,,0.00,meteohub,2013-05-02 15:02:00,
2013-05-02 10:07:00,53.1,40.5,30.27,NNW,346,1.0,10.0,62,0.00,,,0.00,meteohub,2013-05-02 15:07:00,
2013-05-02 10:12:00,53.2,41.4,30.27,NNE,17,3.0,11.0,64,0.00,,,0.00,meteohub,2013-05-02 15:12:00,
2013-05-02 10:17:00,54.0,41.7,30.27,NNW,337,0.0,11.0,63,0.00,,,0.00,meteohub,2013-05-02 15:17:00,
2013-05-02 10:22:00,54.9,41.2,30.27,NNW,333,4.0,11.0,60,0.00,,,0.00,meteohub,2013-05-02 15:22:00,
2013-05-02 10:27:00,54.3,41.2,30.27,North,5,6.0,8.0,61,0.00,,,0.00,meteohub,2013-05-02 15:27:00,
2013-05-02 10:32:00,54.7,41.5,30.27,WNW,290,2.0,8.0,61,0.00,,,0.00,meteohub,2013-05-02 15:32:00,
2013-05-02 10:37:00,54.5,41.7,30.27,NNW,346,1.0,8.0,62,0.00,,,0.00,meteohub,2013-05-02 15:37:00,
2013-05-02 10:42:00,54.7,41.0,30.27,NNW,347,1.0,8.0,60,0.00,,,0.00,meteohub,2013-05-02 15:42:00,
2013-05-02 10:47:00,54.7,41.5,30.27,NW,321,5.0,11.0,61,0.00,,,0.00,meteohub,2013-05-02 15:47:00,
2013-05-02 10:52:00,54.5,41.7,30.25,NNW,331,1.0,11.0,62,0.00,,,0.00,meteohub,2013-05-02 15:52:00,
2013-05-02 10:57:00,54.9,41.7,30.26,WSW,254,0.0,11.0,61,0.00,,,0.00,meteohub,2013-05-02 15:57:00,
2013-05-02 11:02:00,55.4,42.3,30.26,West,275,5.0,11.0,61,0.00,,,0.00,meteohub,2013-05-02 16:02:00,
2013-05-02 11:07:00,55.9,41.9,30.26,North,355,1.0,11.0,59,0.00,,,0.00,meteohub,2013-05-02 16:07:00,
2013-05-02 11:12:00,55.9,42.6,30.26,NW,305,4.0,8.0,61,0.00,,,0.00,meteohub,2013-05-02 16:12:00,
2013-05-02 11:17:00,55.8,42.1,30.25,NNW,346,9.0,9.0,60,0.00,,,0.00,meteohub,2013-05-02 16:17:00,
2013-05-02 11:22:00,56.1,42.4,30.25,NNW,327,1.0,9.0,60,0.00,,,0.00,meteohub,2013-05-02 16:22:00,
2013-05-02 11:27:00,57.0,42.8,30.25,NNE,30,0.0,9.0,59,0.00,,,0.00,meteohub,2013-05-02 16:27:00,
2013-05-02 11:32:00,56.8,43.2,30.25,WNW,302,0.0,9.0,60,0.00,,,0.00,meteohub,2013-05-02 16:32:00,
2013-05-02 11:37:00,56.5,42.8,30.25,NNW,331,0.0,8.0,60,0.00,,,0.00,meteohub,2013-05-02 16:37:00,
2013-05-02 11:42:00,56.5,42.8,30.25,NW,313,1.0,8.0,60,0.00,,,0.00,meteohub,2013-05-02 16:42:00,
2013-05-02 11:47:00,56.7,43.0,30.25,North,0,1.0,9.0,60,0.00,,,0.00,meteohub,2013-05-02 16:47:00,
2013-05-02 11:52:00,56.7,43.0,30.25,NW,316,8.0,9.0,60,0.00,,,0.00,meteohub,2013-05-02 16:52:00,
2013-05-02 11:57:00,56.8,43.9,30.24,North,5,2.0,10.0,62,0.00,,,0.00,meteohub,2013-05-02 16:57:00,
2013-05-02 12:02:00,57.0,42.8,30.24,North,10,4.0,10.0,59,0.00,,,0.00,meteohub,2013-05-02 17:02:00,
2013-05-02 12:07:00,57.0,43.3,30.24,NNW,346,1.0,11.0,60,0.00,,,0.00,meteohub,2013-05-02 17:07:00,
2013-05-02 12:12:00,57.7,43.9,30.25,NNW,338,4.0,11.0,60,0.00,,,0.00,meteohub,2013-05-02 17:12:00,
2013-05-02 12:17:00,57.6,43.3,30.24,NE,37,1.0,11.0,59,0.00,,,0.00,meteohub,2013-05-02 17:17:00,
2013-05-02 12:22:00,57.4,43.2,30.25,NNW,342,4.0,7.0,59,0.00,,,0.00,meteohub,2013-05-02 17:22:00,
2013-05-02 12:27:00,56.8,43.2,30.28,WSW,251,0.0,8.0,60,0.00,,,0.00,meteohub,2013-05-02 17:27:00,
2013-05-02 12:32:00,56.5,42.8,30.28,West,263,9.0,9.0,60,0.00,,,0.00,meteohub,2013-05-02 17:32:00,
2013-05-02 12:37:00,56.3,43.0,30.27,West,273,1.0,13.0,61,0.00,,,0.00,meteohub,2013-05-02 17:37:00,
2013-05-02 12:42:00,56.1,42.8,30.27,WNW,290,0.0,13.0,61,0.00,,,0.00,meteohub,2013-05-02 17:42:00,
2013-05-02 12:47:00,56.1,44.1,30.27,NW,319,1.0,13.0,64,0.00,,,0.00,meteohub,2013-05-02 17:47:00,
2013-05-02 12:52:00,55.6,43.5,30.26,NW,323,0.0,5.0,64,0.00,,,0.00,meteohub,2013-05-02 17:52:00,
2013-05-02 12:57:00,55.0,45.5,30.25,NNW,344,0.0,4.0,70,0.00,,,0.00,meteohub,2013-05-02 17:57:00,
2013-05-02 13:02:00,54.3,45.9,30.25,NNW,344,0.0,5.0,73,0.01,,,0.01,meteohub,2013-05-02 18:02:00,
2013-05-02 13:07:00,53.8,46.8,30.25,NE,55,1.0,5.0,77,0.01,,,0.01,meteohub,2013-05-02 18:07:00,
2013-05-02 13:12:00,53.1,47.1,30.24,NE,38,0.0,6.0,80,0.01,,,0.01,meteohub,2013-05-02 18:12:00,
2013-05-02 13:17:00,52.7,46.8,30.22,NE,49,8.0,8.0,80,0.01,,,0.01,meteohub,2013-05-02 18:17:00,
2013-05-02 13:22:00,52.3,46.9,30.23,North,9,4.0,9.0,82,0.01,,,0.01,meteohub,2013-05-02 18:22:00,
2013-05-02 13:27:00,52.3,47.3,30.21,North,5,0.0,9.0,83,0.02,,,0.02,meteohub,2013-05-02 18:27:00,
2013-05-02 13:32:00,52.3,47.3,30.20,NNE,13,10.0,10.0,83,0.02,,,0.02,meteohub,2013-05-02 18:32:00,
2013-05-02 13:37:00,52.3,46.9,30.20,North,5,2.0,13.0,82,0.02,,,0.02,meteohub,2013-05-02 18:37:00,
2013-05-02 13:42:00,52.7,47.1,30.21,NNE,27,2.0,13.0,81,0.02,,,0.02,meteohub,2013-05-02 18:42:00,
2013-05-02 13:47:00,53.1,47.7,30.22,NNE,14,2.0,10.0,82,0.02,,,0.02,meteohub,2013-05-02 18:47:00,
2013-05-02 13:52:00,53.4,47.7,30.22,NW,317,0.0,8.0,81,0.02,,,0.02,meteohub,2013-05-02 18:52:00,
2013-05-02 13:57:00,53.6,47.8,30.22,NE,34,0.0,8.0,81,0.01,,,0.02,meteohub,2013-05-02 18:57:00,
2013-05-02 14:02:00,54.0,48.0,30.22,NNE,26,0.0,7.0,80,0.01,,,0.02,meteohub,2013-05-02 19:02:00,
2013-05-02 14:07:00,54.0,48.0,30.22,NNE,29,3.0,7.0,80,0.01,,,0.02,meteohub,2013-05-02 19:07:00,
2013-05-02 14:12:00,54.1,48.0,30.21,North,350,0.0,4.0,80,0.01,,,0.02,meteohub,2013-05-02 19:12:00,
2013-05-02 14:17:00,54.7,49.6,30.22,North,355,1.0,7.0,83,0.01,,,0.02,meteohub,2013-05-02 19:17:00,
2013-05-02 14:22:00,54.7,48.6,30.22,ENE,77,0.0,8.0,80,0.01,,,0.02,meteohub,2013-05-02 19:22:00,
2013-05-02 14:27:00,54.9,49.1,30.21,East,89,2.0,8.0,81,0.00,,,0.02,meteohub,2013-05-02 19:27:00,
2013-05-02 14:32:00,53.8,47.8,30.21,ENE,77,2.0,7.0,80,0.00,,,0.02,meteohub,2013-05-02 19:32:00,
2013-05-02 14:37:00,53.8,48.0,30.21,ENE,68,0.0,6.0,81,0.00,,,0.02,meteohub,2013-05-02 19:37:00,
2013-05-02 14:42:00,53.2,46.6,30.21,ENE,71,1.0,6.0,78,0.00,,,0.02,meteohub,2013-05-02 19:42:00,
2013-05-02 14:47:00,52.5,46.6,30.22,East,86,0.0,5.0,80,0.00,,,0.02,meteohub,2013-05-02 19:47:00,
2013-05-02 14:52:00,52.3,46.4,30.24,East,92,0.0,4.0,80,0.00,,,0.02,meteohub,2013-05-02 19:52:00,
2013-05-02 14:57:00,52.3,45.7,30.25,SSE,148,1.0,4.0,78,0.00,,,0.02,meteohub,2013-05-02 19:57:00,
2013-05-02 15:02:00,52.0,45.7,30.25,ESE,111,1.0,3.0,79,0.00,,,0.02,meteohub,2013-05-02 20:02:00,
2013-05-02 15:07:00,51.4,45.9,30.25,East,96,0.0,3.0,81,0.00,,,0.02,meteohub,2013-05-02 20:07:00,
2013-05-02 15:12:00,51.1,45.9,30.24,ENE,69,1.0,3.0,82,0.01,,,0.03,meteohub,2013-05-02 20:12:00,
2013-05-02 15:17:00,50.5,45.5,30.23,East,89,2.0,3.0,83,0.01,,,0.03,meteohub,2013-05-02 20:17:00,
2013-05-02 15:22:00,50.5,46.2,30.23,East,99,0.0,5.0,85,0.01,,,0.03,meteohub,2013-05-02 20:22:00,
2013-05-02 15:27:00,50.4,46.0,30.22,East,98,0.0,5.0,85,0.01,,,0.03,meteohub,2013-05-02 20:27:00,
2013-05-02 15:32:00,50.4,46.4,30.22,ENE,67,2.0,2.0,86,0.01,,,0.03,meteohub,2013-05-02 20:32:00,
2013-05-02 15:37:00,50.2,46.2,30.22,NE,53,0.0,4.0,86,0.01,,,0.03,meteohub,2013-05-02 20:37:00,
2013-05-02 15:42:00,50.2,46.2,30.21,NNE,31,4.0,6.0,86,0.01,,,0.03,meteohub,2013-05-02 20:42:00,
2013-05-02 15:47:00,50.0,46.0,30.22,NE,54,5.0,6.0,86,0.01,,,0.03,meteohub,2013-05-02 20:47:00,
2013-05-02 15:52:00,49.8,45.5,30.21,ENE,60,2.0,10.0,85,0.01,,,0.03,meteohub,2013-05-02 20:52:00,
2013-05-02 15:57:00,49.8,45.5,30.22,ENE,74,0.0,10.0,85,0.01,,,0.03,meteohub,2013-05-02 20:57:00,
2013-05-02 16:02:00,50.0,45.7,30.22,NE,34,4.0,10.0,85,0.01,,,0.03,meteohub,2013-05-02 21:02:00,
2013-05-02 16:07:00,50.2,46.2,30.22,ENE,61,0.0,6.0,86,0.01,,,0.03,meteohub,2013-05-02 21:07:00,
2013-05-02 16:12:00,50.2,45.9,30.22,ENE,57,1.0,6.0,85,0.00,,,0.03,meteohub,2013-05-02 21:12:00,
2013-05-02 16:17:00,50.2,45.9,30.22,NE,39,0.0,6.0,85,0.00,,,0.03,meteohub,2013-05-02 21:17:00,
2013-05-02 16:22:00,50.2,45.9,30.22,NNE,27,1.0,6.0,85,0.00,,,0.03,meteohub,2013-05-02 21:22:00,
2013-05-02 16:27:00,50.0,45.7,30.22,NNE,32,2.0,6.0,85,0.00,,,0.03,meteohub,2013-05-02 21:27:00,
2013-05-02 16:32:00,49.8,45.5,30.22,North,5,0.0,6.0,85,0.00,,,0.03,meteohub,2013-05-02 21:32:00,
2013-05-02 16:37:00,49.8,45.5,30.22,North,351,1.0,6.0,85,0.00,,,0.03,meteohub,2013-05-02 21:37:00,
2013-05-02 16:42:00,50.0,46.0,30.22,North,0,0.0,6.0,86,0.00,,,0.03,meteohub,2013-05-02 21:42:00,
2013-05-02 16:47:00,50.2,46.2,30.21,NNW,333,2.0,5.0,86,0.00,,,0.03,meteohub,2013-05-02 21:47:00,
2013-05-02 16:52:00,50.2,46.2,30.21,NNW,333,2.0,5.0,86,0.00,,,0.03,meteohub,2013-05-02 21:52:00,
2013-05-02 16:57:00,50.2,46.2,30.21,NW,324,2.0,7.0,86,0.00,,,0.03,meteohub,2013-05-02 21:57:00,
2013-05-02 17:02:00,50.2,45.9,30.21,NNE,24,2.0,7.0,85,0.00,,,0.03,meteohub,2013-05-02 22:02:00,
2013-05-02 17:07:00,50.2,45.9,30.21,North,349,3.0,7.0,85,0.00,,,0.03,meteohub,2013-05-02 22:07:00,
2013-05-02 17:12:00,50.2,46.2,30.21,WNW,299,0.0,9.0,86,0.00,,,0.03,meteohub,2013-05-02 22:12:00,
2013-05-02 17:17:00,50.2,46.2,30.21,WNW,292,5.0,9.0,86,0.00,,,0.03,meteohub,2013-05-02 22:17:00,
2013-05-02 17:22:00,50.2,46.4,30.21,WNW,300,2.0,6.0,87,0.00,,,0.03,meteohub,2013-05-02 22:22:00,
2013-05-02 17:27:00,50.2,46.2,30.22,West,281,2.0,6.0,86,0.00,,,0.03,meteohub,2013-05-02 22:27:00,
2013-05-02 17:32:00,50.0,46.2,30.22,WNW,294,4.0,6.0,87,0.00,,,0.03,meteohub,2013-05-02 22:32:00,
2013-05-02 17:37:00,50.0,46.6,30.22,NNW,332,4.0,7.0,88,0.00,,,0.03,meteohub,2013-05-02 22:37:00,
2013-05-02 17:42:00,50.2,46.8,30.22,NNW,331,4.0,7.0,88,0.00,,,0.03,meteohub,2013-05-02 22:42:00,
2013-05-02 17:47:00,50.2,46.8,30.22,NW,325,0.0,7.0,88,0.00,,,0.03,meteohub,2013-05-02 22:47:00,
2013-05-02 17:52:00,50.2,46.8,30.22,North,355,4.0,6.0,88,0.00,,,0.03,meteohub,2013-05-02 22:52:00,
2013-05-02 17:57:00,50.2,46.4,30.22,North,0,5.0,7.0,87,0.00,,,0.03,meteohub,2013-05-02 22:57:00,
2013-05-02 18:02:00,50.0,46.2,30.22,NNE,15,0.0,8.0,87,0.00,,,0.03,meteohub,2013-05-02 23:02:00,
2013-05-02 18:07:00,50.2,46.4,30.22,NNW,340,0.0,8.0,87,0.00,,,0.03,meteohub,2013-05-02 23:07:00,
2013-05-02 18:12:00,50.2,46.4,30.22,North,5,6.0,8.0,87,0.00,,,0.03,meteohub,2013-05-02 23:12:00,
2013-05-02 18:17:00,50.2,46.2,30.22,North,5,5.0,8.0,86,0.00,,,0.03,meteohub,2013-05-02 23:17:00,
2013-05-02 18:22:00,50.2,45.9,30.23,NE,50,1.0,11.0,85,0.00,,,0.03,meteohub,2013-05-02 23:22:00,
2013-05-02 18:27:00,50.2,45.9,30.23,NW,316,1.0,11.0,85,0.00,,,0.03,meteohub,2013-05-02 23:27:00,
2013-05-02 18:32:00,50.4,46.0,30.24,NW,315,3.0,11.0,85,0.00,,,0.03,meteohub,2013-05-02 23:32:00,
2013-05-02 18:37:00,50.2,45.5,30.24,West,269,0.0,9.0,84,0.00,,,0.03,meteohub,2013-05-02 23:37:00,
2013-05-02 18:42:00,50.4,46.0,30.23,WNW,292,2.0,6.0,85,0.00,,,0.03,meteohub,2013-05-02 23:42:00,
2013-05-02 18:47:00,50.4,46.0,30.24,West,281,8.0,8.0,85,0.00,,,0.03,meteohub,2013-05-02 23:47:00,
2013-05-02 18:52:00,50.0,45.7,30.24,NW,307,3.0,10.0,85,0.00,,,0.03,meteohub,2013-05-02 23:52:00,
2013-05-02 18:57:00,49.8,45.9,30.24,WNW,298,4.0,10.0,86,0.00,,,0.03,meteohub,2013-05-02 23:57:00,
2013-05-02 19:02:00,49.8,45.5,30.23,NW,318,5.0,10.0,85,0.00,,,0.03,meteohub,2013-05-03 00:02:00,
2013-05-02 19:07:00,49.6,45.0,30.24,NW,312,3.0,9.0,84,0.00,,,0.00,meteohub,2013-05-03 00:07:00,
2013-05-02 19:12:00,49.5,44.8,30.24,NW,319,4.0,12.0,84,0.00,,,0.00,meteohub,2013-05-03 00:12:00,
2013-05-02 19:17:00,49.5,44.8,30.24,North,355,5.0,12.0,84,0.00,,,0.00,meteohub,2013-05-03 00:17:00,
2013-05-02 19:22:00,49.3,44.6,30.22,NW,317,5.0,12.0,84,0.00,,,0.00,meteohub,2013-05-03 00:22:00,
2013-05-02 19:27:00,49.1,44.4,30.21,WNW,290,5.0,10.0,84,0.00,,,0.00,meteohub,2013-05-03 00:27:00,
2013-05-02 19:32:00,48.9,44.6,30.21,NNW,334,2.0,15.0,85,0.00,,,0.00,meteohub,2013-05-03 00:32:00,
2013-05-02 19:37:00,48.9,44.2,30.21,NNE,32,8.0,15.0,84,0.00,,,0.00,meteohub,2013-05-03 00:37:00,
2013-05-02 19:42:00,48.7,44.1,30.22,NW,323,4.0,15.0,84,0.00,,,0.00,meteohub,2013-05-03 00:42:00,
2013-05-02 19:47:00,48.7,44.1,30.22,NW,317,5.0,11.0,84,0.00,,,0.00,meteohub,2013-05-03 00:47:00,
2013-05-02 19:52:00,48.6,43.9,30.24,West,273,1.0,11.0,84,0.00,,,0.00,meteohub,2013-05-03 00:52:00,
2013-05-02 19:57:00,48.4,44.1,30.25,NW,311,2.0,10.0,85,0.00,,,0.00,meteohub,2013-05-03 00:57:00,
2013-05-02 20:02:00,47.8,43.2,30.25,NNW,332,4.0,10.0,84,0.00,,,0.00,meteohub,2013-05-03 01:02:00,
2013-05-02 20:07:00,47.7,43.3,30.25,NNW,347,1.0,10.0,85,0.00,,,0.00,meteohub,2013-05-03 01:07:00,
2013-05-02 20:12:00,47.5,43.2,30.24,West,272,8.0,9.0,85,0.00,,,0.00,meteohub,2013-05-03 01:12:00,
2013-05-02 20:17:00,47.1,43.5,30.24,NNW,343,5.0,11.0,87,0.00,,,0.00,meteohub,2013-05-03 01:17:00,
2013-05-02 20:22:00,46.9,43.0,30.24,North,355,8.0,11.0,86,0.00,,,0.00,meteohub,2013-05-03 01:22:00,
2013-05-02 20:27:00,46.6,43.0,30.25,NNW,342,0.0,12.0,87,0.00,,,0.00,meteohub,2013-05-03 01:27:00,
2013-05-02 20:32:00,46.0,42.6,30.24,NNW,336,2.0,12.0,88,0.02,,,0.02,meteohub,2013-05-03 01:32:00,
2013-05-02 20:37:00,45.7,42.6,30.24,WNW,292,7.0,12.0,89,0.03,,,0.03,meteohub,2013-05-03 01:37:00,
2013-05-02 20:42:00,45.3,42.6,30.24,WNW,293,4.0,11.0,90,0.03,,,0.03,meteohub,2013-05-03 01:42:00,
2013-05-02 20:47:00,45.1,42.4,30.24,West,281,6.0,10.0,90,0.03,,,0.03,meteohub,2013-05-03 01:47:00,
2013-05-02 20:52:00,45.0,42.3,30.24,NNW,346,2.0,10.0,90,0.03,,,0.03,meteohub,2013-05-03 01:52:00,
2013-05-02 20:57:00,44.8,42.1,30.25,NW,319,4.0,10.0,90,0.03,,,0.03,meteohub,2013-05-03 01:57:00,
2013-05-02 21:02:00,44.8,42.1,30.25,NNW,346,3.0,10.0,90,0.03,,,0.03,meteohub,2013-05-03 02:02:00,
2013-05-02 21:07:00,44.6,41.9,30.25,NNW,346,4.0,10.0,90,0.03,,,0.03,meteohub,2013-05-03 02:07:00,
2013-05-02 21:12:00,44.2,41.5,30.24,NNW,346,9.0,10.0,90,0.03,,,0.03,meteohub,2013-05-03 02:12:00,
2013-05-02 21:17:00,44.1,41.4,30.25,NW,309,2.0,10.0,90,0.03,,,0.03,meteohub,2013-05-03 02:17:00,
2013-05-02 21:22:00,44.1,41.4,30.25,North,0,3.0,10.0,90,0.03,,,0.03,meteohub,2013-05-03 02:22:00,
2013-05-02 21:27:00,43.9,41.4,30.25,NNW,341,0.0,10.0,91,0.04,,,0.04,meteohub,2013-05-03 02:27:00,
2013-05-02 21:32:00,43.9,41.4,30.25,WNW,298,2.0,10.0,91,0.03,,,0.05,meteohub,2013-05-03 02:32:00,
2013-05-02 21:37:00,43.5,41.0,30.26,NW,325,1.0,8.0,91,0.02,,,0.05,meteohub,2013-05-03 02:37:00,
2013-05-02 21:42:00,43.5,41.0,30.24,NNW,344,0.0,8.0,91,0.03,,,0.06,meteohub,2013-05-03 02:42:00,
2013-05-02 21:47:00,43.5,41.4,30.25,NNW,339,4.0,7.0,92,0.07,,,0.10,meteohub,2013-05-03 02:47:00,
2013-05-02 21:52:00,43.2,41.0,30.25,NNE,19,6.0,7.0,92,0.09,,,0.12,meteohub,2013-05-03 02:52:00,
2013-05-02 21:57:00,42.8,40.6,30.25,NNW,338,2.0,8.0,92,0.13,,,0.16,meteohub,2013-05-03 02:57:00,
2013-05-02 22:02:00,42.6,40.5,30.25,North,5,3.0,9.0,92,0.16,,,0.19,meteohub,2013-05-03 03:02:00,
2013-05-02 22:07:00,42.4,40.3,30.27,East,88,1.0,11.0,92,0.16,,,0.19,meteohub,2013-05-03 03:07:00,
2013-05-02 22:12:00,42.3,40.1,30.24,North,355,2.0,11.0,92,0.17,,,0.20,meteohub,2013-05-03 03:12:00,
2013-05-02 22:17:00,42.3,40.1,30.25,ENE,73,5.0,11.0,92,0.17,,,0.20,meteohub,2013-05-03 03:17:00,
2013-05-02 22:22:00,42.1,39.9,30.24,NNE,24,1.0,11.0,92,0.19,,,0.22,meteohub,2013-05-03 03:22:00,
2013-05-02 22:27:00,42.1,39.9,30.25,WNW,293,4.0,12.0,92,0.20,,,0.24,meteohub,2013-05-03 03:27:00,
2013-05-02 22:32:00,42.3,40.5,30.26,West,277,6.0,12.0,93,0.20,,,0.25,meteohub,2013-05-03 03:32:00,
2013-05-02 22:37:00,42.1,39.9,30.25,WNW,294,5.0,9.0,92,0.20,,,0.26,meteohub,2013-05-03 03:37:00,
2013-05-02 22:42:00,42.1,39.9,30.24,WNW,297,6.0,8.0,92,0.19,,,0.26,meteohub,2013-05-03 03:42:00,
2013-05-02 22:47:00,42.1,40.3,30.25,WNW,294,5.0,8.0,93,0.16,,,0.27,meteohub,2013-05-03 03:47:00,
2013-05-02 22:52:00,41.7,39.6,30.25,NW,325,5.0,8.0,92,0.13,,,0.27,meteohub,2013-05-03 03:52:00,
2013-05-02 22:57:00,41.5,39.4,30.25,WNW,298,4.0,12.0,92,0.10,,,0.27,meteohub,2013-05-03 03:57:00,
2013-05-02 23:01:00,41.5,39.4,30.25,NW,311,4.0,12.0,92,0.09,,,0.28,meteohub,2013-05-03 04:01:00,
2013-05-02 23:02:00,41.5,39.4,30.25,NW,314,3.0,12.0,92,0.09,,,0.28,meteohub,2013-05-03 04:02:00,
2013-05-02 23:04:00,41.4,39.2,30.25,NNW,330,8.0,12.0,92,0.09,,,0.28,meteohub,2013-05-03 04:04:00,
2013-05-02 23:09:00,41.4,39.2,30.24,NNW,341,0.0,12.0,92,0.08,,,0.28,meteohub,2013-05-03 04:09:00,
2013-05-02 23:14:00,41.4,39.2,30.24,NNW,338,7.0,11.0,92,0.09,,,0.29,meteohub,2013-05-03 04:14:00,
2013-05-02 23:19:00,41.2,39.0,30.24,NE,42,10.0,13.0,92,0.08,,,0.30,meteohub,2013-05-03 04:19:00,
2013-05-02 23:24:00,41.0,38.8,30.24,NNW,337,3.0,14.0,92,0.09,,,0.32,meteohub,2013-05-03 04:24:00,
2013-05-02 23:29:00,41.0,39.2,30.24,NNW,336,1.0,14.0,93,0.08,,,0.32,meteohub,2013-05-03 04:29:00,
2013-05-02 23:34:00,41.2,39.4,30.25,West,275,0.0,14.0,93,0.07,,,0.33,meteohub,2013-05-03 04:34:00,
2013-05-02 23:39:00,41.2,39.4,30.24,NNW,343,4.0,9.0,93,0.08,,,0.34,meteohub,2013-05-03 04:39:00,
2013-05-02 23:44:00,40.8,39.0,30.24,North,351,0.0,9.0,93,0.08,,,0.34,meteohub,2013-05-03 04:44:00,
2013-05-02 23:49:00,40.6,38.5,30.24,NNW,344,4.0,9.0,92,0.09,,,0.36,meteohub,2013-05-03 04:49:00,
2013-05-02 23:54:00,40.8,39.0,30.24,WNW,299,4.0,10.0,93,0.10,,,0.37,meteohub,2013-05-03 04:54:00,
2013-05-02 23:59:00,40.8,39.0,30.23,WNW,290,4.0,10.0,93,0.11,,,0.38,meteohub,2013-05-03 04:59:00,